Location: Newark
(49.0697°N, 1.0692°W)
Time: 15:48:42
(UTC+00:00)

Envisat - Visible Passes

Search period start: 26 January 2020 00:00
Search period end: 05 February 2020 00:00
Orbit: 764 x 766 km, 98.1° (Epoch: 26 January)

Date Brightness Start Highest point End Pass type
(mag) Time Alt. Az. Time Alt. Az. Time Alt. Az.
26 Jan 5.9 05:36:47 10° NE 05:40:16 18° E 05:43:43 10° SE visible
26 Jan 4.7 18:33:53 10° SSW 18:38:31 35° W 18:43:12 10° NNW visible
27 Jan 3.7 06:37:57 10° NNE 06:43:00 60° E 06:48:01 10° S visible
27 Jan 3.3 17:56:31 10° S 18:01:35 72° WSW 18:06:41 10° NNW visible
27 Jan 6.4 19:40:39 10° W 19:41:32 10° W 19:42:24 10° WNW visible
28 Jan 5.1 06:01:35 10° NNE 06:06:01 29° E 06:10:26 10° SSE visible
28 Jan 3.1 17:19:53 10° SSE 17:24:51 57° ENE 17:29:50 10° N visible
28 Jan 5.6 19:00:20 10° SW 19:04:15 22° W 19:08:10 10° NW visible
29 Jan 6.2 05:26:00 10° NE 05:28:49 15° E 05:31:37 10° ESE visible
29 Jan 3.0 07:03:25 10° NNE 07:08:32 84° WNW 07:13:36 10° SSW visible
29 Jan 4.3 18:22:20 10° S 18:27:10 44° W 18:32:02 10° NNW visible
30 Jan 4.1 06:26:44 10° NNE 06:31:40 48° E 06:36:34 10° S visible
30 Jan 3.1 17:45:12 10° SSE 17:50:17 88° W 17:55:25 10° NNW visible
30 Jan 6.2 19:27:40 10° WSW 19:30:04 13° W 19:32:28 10° WNW visible
31 Jan 5.5 05:50:30 10° NE 05:54:37 24° E 05:58:43 10° SE visible
31 Jan 5.2 18:48:34 10° SSW 18:52:50 27° W 18:57:08 10° NW visible
01 Feb 6.4 05:15:34 10° ENE 05:17:21 12° E 05:19:08 10° ESE visible
01 Feb 3.2 06:52:06 10° NNE 06:57:13 80° ESE 07:02:19 10° S visible
01 Feb 3.9 18:10:51 10° S 18:15:49 54° W 18:20:50 10° NNW visible
02 Feb 4.6 06:15:32 10° NNE 06:20:19 39° E 06:25:03 10° SSE visible
02 Feb 3.0 17:33:56 10° SSE 17:39:00 76° ENE 17:44:06 10° N visible
02 Feb 6.0 19:15:26 10° SW 19:18:37 17° W 19:21:49 10° NW visible
03 Feb 5.8 05:39:32 10° NE 05:43:12 20° E 05:46:52 10° SE visible
03 Feb 4.9 18:36:54 10° SSW 18:41:27 33° W 18:46:02 10° NNW visible
04 Feb 3.6 06:40:50 10° NNE 06:45:55 65° ESE 06:50:58 10° S visible
04 Feb 3.5 17:59:26 10° S 18:04:29 67° WSW 18:09:35 10° NNW visible
